FW7769 Weather Reports


time (UTC)temp
F
wind
direction
speed
knots
gust
knots
rain 1hr
in
rain 24hr
in
rain mn
in
humidity
%
barometer
mb
20260507013051 62 0 0.0 0.0 0.00 0.00 0.00 81 1010.3
20260507011544 62 0 0.0 0.0 0.00 0.00 0.00 80 1010.3
20260507010053 62 0 0.0 0.9 0.00 0.00 0.00 80 1010.1
20260507004539 62 0 0.0 0.0 0.00 0.00 0.00 80 1010.1
20260507003039 62 0 0.0 0.0 0.00 0.00 0.00 81 1010.3
20260507001555 62 0 0.0 0.0 0.00 0.00 0.00 82 1010.4
20260507000041 62 0 0.0 0.0 0.00 0.00 0.00 83 1010.5
20260506234551 62 0 0.0 0.0 0.00 0.00 0.00 83 1010.6
20260506233054 63 0 0.0 0.0 0.00 0.00 0.00 83 1010.8
20260506231550 63 0 0.0 0.0 0.00 0.00 0.00 83 1010.8
20260506230048 63 0 0.0 0.0 0.00 0.00 0.00 83 1010.9
20260506224542 63 0 0.0 0.0 0.00 0.00 0.00 83 1010.8
20260506223040 63 0 0.0 0.0 0.00 0.00 0.00 83 1010.8
20260506221556 63 0 0.0 0.0 0.00 0.00 0.00 83 1010.8
20260506220041 63 0 0.0 0.0 0.00 0.00 0.00 84 1010.7
20260506214538 63 0 0.0 0.0 0.00 0.00 0.00 84 1011.1
20260506213042 63 0 0.0 0.0 0.00 0.00 0.00 84 1011.2
20260506211544 63 0 0.0 0.0 0.00 0.00 0.00 84 1011.2
20260506210041 63 0 0.0 0.0 0.00 0.00 0.00 85 1011.2
20260506204539 63 0 0.0 0.0 0.00 0.00 0.00 85 1011.0
20260506203039 63 0 0.0 0.0 0.00 0.00 0.00 85 1010.8
20260506201543 63 0 0.0 0.0 0.00 0.00 0.00 84 1010.7
20260506200046 63 0 0.0 0.0 0.00 0.00 0.00 84 1010.6
20260506194546 64 0 0.0 0.0 0.00 0.00 0.00 83 1010.1
20260506193038 64 0 0.0 0.0 0.00 0.00 0.00 82 1010.1
20260506191539 64 0 0.0 0.0 0.00 0.00 0.00 82 1010.0
20260506190038 65 0 0.0 0.9 0.00 0.00 0.00 81 1009.8
20260506184544 65 0 0.0 1.7 0.00 0.00 0.00 79 1009.6
20260506183041 66 0 0.0 2.6 0.00 0.00 0.00 78 1009.5
20260506181539 66 82 0.0 0.9 0.00 0.00 0.00 77 1009.6
20260506180043 66 0 0.0 2.6 0.00 0.00 0.00 76 1009.4
20260506174548 66 0 0.0 3.5 0.00 0.00 0.00 75 1009.3
20260506173056 67 64 0.0 3.5 0.00 0.00 0.00 72 1009.2
20260506171549 68 0 0.0 1.7 0.00 0.00 0.00 72 1009.2
20260506170042 68 0 0.0 1.7 0.00 0.00 0.00 71 1009.2
20260506164552 69 0 0.0 5.2 0.00 0.00 0.00 70 1009.2
20260506163047 69 117 0.0 5.2 0.00 0.00 0.00 69 1008.9
20260506161551 69 110 0.0 3.5 0.00 0.00 0.00 69 1008.9
20260506160050 69 0 0.0 7.8 0.00 0.00 0.00 70 1008.9
20260506154551 70 122 1.7 9.6 0.00 0.00 0.00 68 1008.8
20260506153045 70 0 0.9 7.0 0.00 0.00 0.00 68 1008.9
20260506151549 70 143 0.9 8.7 0.00 0.00 0.00 69 1009.0
20260506150038 70 53 0.0 9.6 0.00 0.00 0.00 69 1009.1
20260506144546 70 37 0.0 8.7 0.00 0.00 0.00 69 1008.9
20260506143042 71 91 0.9 7.8 0.00 0.00 0.00 68 1009.2
20260506141554 71 0 0.9 7.8 0.00 0.00 0.00 69 1009.2
20260506140048 71 0 0.0 7.0 0.00 0.00 0.00 69 1009.3
20260506134538 71 0 0.9 9.6 0.00 0.00 0.00 70 1009.4
20260506133045 71 0 0.0 12.2 0.00 0.00 0.00 69 1009.4
20260506131544 71 107 0.9 8.7 0.00 0.00 0.00 68 1009.4
20260506130042 73 0 0.0 6.1 0.00 0.00 0.00 66 1009.4
20260506124542 73 53 0.0 6.1 0.00 0.00 0.00 65 1009.6
20260506123043 72 0 1.7 7.0 0.00 0.00 0.00 66 1009.8
20260506121538 73 74 0.0 8.7 0.00 0.00 0.00 63 1009.7
20260506120107 73 142 0.0 8.7 0.00 0.00 0.00 64 1009.9
20260506114545 73 0 0.0 7.8 0.00 0.00 0.00 65 1010.1
20260506113040 73 48 0.0 7.0 0.00 0.00 0.00 64 1010.1
20260506111540 73 139 0.0 5.2 0.00 0.00 0.00 63 1010.0
20260506110038 73 0 0.0 6.1 0.00 0.00 0.00 64 1010.0
20260506104540 71 0 0.0 2.6 0.00 0.00 0.00 65 1010.2
20260506103043 72 120 0.0 4.3 0.00 0.00 0.00 62 1010.2
20260506101542 73 0 0.0 3.5 0.00 0.00 0.00 61 1010.3
20260506100039 72 0 0.0 1.7 0.00 0.00 0.00 62 1010.4
20260506094545 71 0 0.0 2.6 0.00 0.00 0.00 62 1010.4
20260506093045 70 0 0.0 1.7 0.00 0.00 0.00 64 1010.3
20260506091544 69 0 0.0 1.7 0.00 0.00 0.00 68 1010.2
20260506090043 69 0 0.0 1.7 0.00 0.00 0.00 68 1010.0
20260506084541 69 0 0.0 1.7 0.00 0.00 0.00 68 1010.1
20260506083043 70 0 0.0 0.0 0.00 0.00 0.00 71 1010.2
20260506081540 69 0 0.0 0.0 0.00 0.00 0.00 70 1010.1
20260506073041 66 0 0.0 0.0 0.00 0.00 0.00 73 1010.0
20260506071549 64 0 0.0 0.0 0.00 0.00 0.00 72 1010.1
20260506061543 57 0 0.0 0.0 0.00 0.00 0.00 80 1010.1
20260506044553 57 0 0.0 0.0 0.00 0.00 0.00 76 1009.0
20260506043040 57 0 0.0 0.0 0.00 0.00 0.00 76 1008.9
20260506041552 57 0 0.0 0.0 0.00 0.00 0.00 77 1008.9
20260506040050 57 0 0.0 0.0 0.00 0.00 0.00 77 1008.8
20260506034543 58 0 0.0 0.0 0.00 0.00 0.00 77 1008.8
20260506033043 58 0 0.0 0.0 0.00 0.00 0.00 76 1008.8
20260506031555 59 0 0.0 0.9 0.00 0.00 0.00 75 1008.7
20260506030056 59 0 0.0 0.0 0.00 0.00 0.00 75 1008.6
20260506024540 59 0 0.0 0.9 0.00 0.00 0.00 76 1008.6
20260506023038 59 0 0.0 0.0 0.00 0.00 0.00 78 1008.5
20260506021543 58 0 0.0 0.0 0.00 0.00 0.00 79 1008.7
20260506020041 59 0 0.0 0.0 0.00 0.00 0.00 77 1008.8
20260506014542 59 0 0.0 0.0 0.00 0.00 0.00 78 1008.8